Location: Nitra
(0.0000°N, 18.0833°E)
Time: 13:23:43
(UTC+02:00)

Tiros 1 despin weight - Visible Passes

Search period start: 26 March 2023 00:00
Search period end: 05 April 2023 01:00
Orbit: 588 x 634 km, 48.2° (Epoch: 26 March)

Date Brightness Start Highest point End Pass type
(mag) Time Alt. Az. Time Alt. Az. Time Alt. Az.
26 Mar ? 05:59:58 10° NNW 06:04:31 70° NE 06:09:08 10° SE visible
27 Mar ? 04:36:31 13° NE 04:37:26 14° NE 04:39:49 10° E visible
27 Mar ? 06:14:18 10° WNW 06:18:41 44° SW 06:23:07 10° SSE visible
28 Mar ? 04:51:39 34° NE 04:51:39 34° NE 04:55:48 10° ESE visible
29 Mar ? 05:06:42 57° SE 05:06:42 57° SE 05:10:23 10° SE visible
30 Mar ? 05:21:35 26° S 05:21:35 26° S 05:24:06 10° SSE visible
31 Mar ? 05:36:19 11° SSW 05:36:19 11° SSW 05:36:32 10° SSW visible
